QPF
0.00 0.00 0.00 0.00 0.00 0.00 0.00 0.00 0.00 0.00 0.00 0.00 0.00 0.00 0.00 0.00 0.00 0.00 0.00 0.01 0.02 0.02 0.03 0.03 0.02 0.03 0.03 0.03 0.03 0.03 0.02 0.02 0.02 0.02 0.01 0.01 0.01 0.01 0.01 0.02 0.02 0.02 0.02
0.00 0.00 0.00 0.00 0.00 0.00 0.00 0.00 0.00 0.00 0.00 0.00 0.00 0.00 0.00 0.00 0.00 0.00 0.00 0.00 0.01 0.01 0.01 0.02 0.02 0.03 0.03 0.03 0.03 0.02 0.02 0.02 0.02 0.02 0.02 0.02 0.01 0.01 0.01 0.01 0.01 0.01 0.02
0.00 0.00 0.00 0.01 0.01 0.01 0.01 0.00 0.00 0.00 0.00 0.00 0.00 0.00 0.00 0.00 0.00 0.00 0.00 0.00 0.00 0.00 0.00 0.01 0.01 0.01 0.01 0.02 0.03 0.03 0.03 0.02 0.02 0.02 0.02 0.01 0.01 0.02 0.01 0.01 0.01 0.01 0.01
0.00 0.01 0.02 0.04 0.04 0.03 0.03 0.02 0.02 0.02 0.01 0.01 0.01 0.00 0.00 0.00 0.00 0.00 0.00 0.00 0.00 0.00 0.00 0.00 0.00 0.00 0.01 0.01 0.01 0.02 0.02 0.03 0.04 0.03 0.03 0.03 0.03 0.03 0.02 0.02 0.02 0.02 0.01
0.02 0.03 0.05 0.07 0.08 0.09 0.09 0.08 0.07 0.05 0.04 0.03 0.01 0.01 0.00 0.00 0.00 0.00 0.00 0.00 0.00 0.00 0.00 0.00 0.00 0.00 0.00 0.00 0.00 0.00 0.01 0.01 0.02 0.02 0.03 0.04 0.04 0.04 0.04 0.03 0.03 0.03 0.02
0.11 0.13 0.14 0.15 0.15 0.13 0.12 0.10 0.08 0.06 0.04 0.02 0.01 0.00 0.00 0.00 0.00 0.00 0.00 0.00 0.00 0.00 0.00 0.00 0.00 0.00 0.00 0.00 0.00 0.00 0.00 0.00 0.00 0.01 0.02 0.03 0.04 0.04 0.03 0.03 0.02 0.02 0.02
0.33 0.31 0.29 0.26 0.23 0.18 0.14 0.10 0.06 0.03 0.02 0.01 0.00 0.00 0.00 0.00 0.00 0.00 0.00 0.00 0.00 0.00 0.00 0.00 0.00 0.00 0.00 0.00 0.00 0.00 0.00 0.00 0.00 0.00 0.01 0.02 0.04 0.04 0.04 0.03 0.02 0.01 0.01
0.49 0.46 0.43 0.38 0.31 0.21 0.14 0.08 0.04 0.02 0.00 0.00 0.00 0.00 0.00 0.00 0.00 0.00 0.00 0.00 0.00 0.00 0.00 0.00 0.00 0.00 0.00 0.00 0.00 0.00 0.00 0.00 0.00 0.00 0.00 0.01 0.01 0.02 0.03 0.03 0.02 0.02 0.01
0.58 0.55 0.45 0.33 0.21 0.12 0.07 0.04 0.01 0.00 0.00 0.00 0.00 0.00 0.00 0.00 0.00 0.00 0.00 0.00 0.00 0.00 0.00 0.00 0.00 0.00 0.00 0.00 0.00 0.00 0.00 0.00 0.00 0.00 0.00 0.00 0.00 0.01 0.01 0.01 0.02 0.02 0.01
0.54 0.41 0.26 0.15 0.08 0.05 0.04 0.02 0.00 0.00 0.00 0.00 0.00 0.00 0.00 0.00 0.00 0.00 0.00 0.00 0.00 0.00 0.00 0.00 0.00 0.00 0.00 0.00 0.00 0.00 0.00 0.00 0.00 0.00 0.00 0.00 0.00 0.00 0.00 0.00 0.01 0.01 0.01
0.31 0.17 0.09 0.06 0.04 0.02 0.01 0.00 0.00 0.00 0.00 0.00 0.00 0.00 0.00 0.00 0.00 0.00 0.00 0.00 0.00 0.00 0.00 0.00 0.00 0.00 0.00 0.00 0.00 0.00 0.00 0.00 0.00 0.00 0.00 0.00 0.00 0.00 0.00 0.00 0.00 0.00 0.01
0.14 0.08 0.03 0.01 0.01 0.00 0.00 0.00 0.00 0.00 0.00 0.00 0.00 0.00 0.00 0.00 0.00 0.00 0.00 0.00 0.00 0.00 0.00 0.00 0.00 0.00 0.00 0.00 0.00 0.00 0.00 0.00 0.00 0.00 0.00 0.00 0.00 0.00 0.00 0.00 0.00 0.00 0.01
0.03 0.01 0.01 0.00 0.00 0.00 0.00 0.00 0.00 0.00 0.00 0.00 0.00 0.00 0.00 0.00 0.00 0.00 0.00 0.00 0.00 0.00 0.00 0.00 0.00 0.00 0.00 0.00 0.00 0.00 0.00 0.00 0.00 0.00 0.00 0.00 0.00 0.00 0.00 0.00 0.00 0.00 0.01
0.00 0.00 0.00 0.00 0.00 0.00 0.00 0.00 0.00 0.00 0.00 0.00 0.00 0.00 0.00 0.00 0.00 0.00 0.00 0.00 0.00 0.00 0.00 0.00 0.00 0.00 0.00 0.00 0.00 0.00 0.00 0.00 0.00 0.00 0.00 0.00 0.00 0.00 0.00 0.00 0.01 0.01 0.02
0.00 0.00 0.00 0.00 0.00 0.00 0.00 0.00 0.00 0.00 0.00 0.00 0.00 0.00 0.00 0.00 0.00 0.00 0.00 0.00 0.00 0.00 0.00 0.00 0.00 0.00 0.00 0.00 0.00 0.00 0.00 0.00 0.00 0.00 0.00 0.00 0.00 0.00 0.00 0.00 0.01 0.01 0.02
0.00 0.00 0.00 0.00 0.00 0.00 0.00 0.00 0.00 0.00 0.00 0.00 0.00 0.00 0.00 0.00 0.00 0.00 0.00 0.00 0.00 0.00 0.00 0.00 0.00 0.00 0.00 0.00 0.00 0.00 0.00 0.00 0.00 0.00 0.00 0.00 0.00 0.00 0.00 0.00 0.00 0.01 0.02
0.00 0.00 0.00 0.00 0.00 0.00 0.00 0.00 0.00 0.00 0.00 0.00 0.00 0.00 0.00 0.00 0.00 0.00 0.00 0.00 0.00 0.00 0.00 0.00 0.00 0.00 0.00 0.00 0.00 0.00 0.00 0.00 0.00 0.00 0.00 0.00 0.01 0.01 0.02 0.02 0.02 0.03 0.03
0.00 0.00 0.00 0.00 0.00 0.00 0.00 0.00 0.00 0.00 0.00 0.00 0.00 0.00 0.00 0.00 0.00 0.00 0.00 0.00 0.00 0.00 0.00 0.00 0.00 0.00 0.00 0.00 0.00 0.00 0.00 0.00 0.00 0.00 0.02 0.03 0.05 0.06 0.05 0.05 0.04 0.04 0.04
0.00 0.00 0.00 0.00 0.00 0.00 0.00 0.00 0.00 0.00 0.00 0.00 0.00 0.00 0.00 0.00 0.00 0.00 0.00 0.00 0.00 0.00 0.00 0.01 0.00 0.00 0.00 0.00 0.00 0.00 0.00 0.00 0.00 0.01 0.02 0.03 0.04 0.04 0.04 0.04 0.04 0.04 0.03
0.00 0.00 0.00 0.00 0.00 0.00 0.00 0.00 0.00 0.00 0.00 0.00 0.00 0.00 0.00 0.00 0.00 0.00 0.00 0.00 0.00 0.01 0.01 0.02 0.02 0.01 0.01 0.01 0.01 0.01 0.01 0.00 0.00 0.00 0.00 0.01 0.01 0.01 0.02 0.02 0.02 0.02 0.02
0.00 0.00 0.00 0.00 0.00 0.00 0.00 0.00 0.00 0.00 0.00 0.00 0.00 0.00 0.00 0.00 0.00 0.00 0.01 0.01 0.02 0.02 0.02 0.03 0.02 0.02 0.01 0.01 0.01 0.01 0.01 0.01 0.00 0.00 0.00 0.00 0.00 0.00 0.01 0.01 0.01 0.01 0.01
0.00 0.00 0.00 0.00 0.00 0.00 0.00 0.00 0.00 0.00 0.00 0.00 0.00 0.00 0.00 0.00 0.00 0.00 0.01 0.02 0.04 0.04 0.03 0.02 0.02 0.03 0.02 0.01 0.02 0.02 0.01 0.01 0.01 0.00 0.00 0.00 0.00 0.00 0.00 0.00 0.00 0.00 0.00
0.00 0.00 0.00 0.00 0.00 0.00 0.00 0.00 0.00 0.00 0.00 0.00 0.00 0.00 0.00 0.00 0.00 0.00 0.01 0.01 0.01 0.01 0.02 0.02 0.03 0.04 0.02 0.02 0.02 0.03 0.03 0.03 0.02 0.01 0.02 0.03 0.01 0.00 0.00 0.00 0.00 0.00 0.00
0.00 0.00 0.00 0.00 0.00 0.00 0.00 0.00 0.00 0.00 0.00 0.00 0.00 0.00 0.00 0.00 0.00 0.01 0.01 0.01 0.00 0.00 0.01 0.02 0.03 0.04 0.03 0.03 0.05 0.06 0.06 0.05 0.03 0.01 0.04 0.06 0.02 0.01 0.01 0.01 0.02 0.01 0.01
0.00 0.00 0.00 0.00 0.00 0.00 0.00 0.00 0.00 0.00 0.00 0.00 0.00 0.00 0.00 0.00 0.00 0.01 0.01 0.01 0.01 0.00 0.01 0.03 0.05 0.06 0.06 0.07 0.07 0.07 0.08 0.07 0.05 0.02 0.03 0.07 0.05 0.03 0.02 0.02 0.02 0.03 0.03
0.00 0.00 0.00 0.00 0.00 0.00 0.00 0.00 0.00 0.00 0.00 0.00 0.00 0.00 0.00 0.00 0.01 0.01 0.02 0.02 0.03 0.02 0.03 0.03 0.04 0.04 0.05 0.06 0.08 0.07 0.07 0.06 0.05 0.04 0.05 0.07 0.06 0.05 0.04 0.02 0.01 0.02 0.03
MSLP
1017.41 1017.65 1017.83 1017.98 1018.12 1018.27 1018.43 1018.61 1018.79 1018.94 1019.07 1019.15 1019.19 1019.21 1019.22 1019.24 1019.28 1019.34 1019.41 1019.48 1019.53 1019.55 1019.54 1019.50 1019.44 1019.39 1019.37 1019.39 1019.44 1019.51 1019.60 1019.68 1019.75 1019.79 1019.82 1019.85 1019.88 1019.93 1020.02 1020.12 1020.26 1020.40 1020.56
1017.29 1017.59 1017.85 1018.09 1018.31 1018.53 1018.74 1018.95 1019.15 1019.32 1019.45 1019.55 1019.61 1019.65 1019.68 1019.71 1019.75 1019.80 1019.86 1019.90 1019.93 1019.92 1019.88 1019.82 1019.74 1019.66 1019.59 1019.54 1019.52 1019.51 1019.52 1019.52 1019.52 1019.52 1019.52 1019.53 1019.56 1019.61 1019.69 1019.80 1019.92 1020.06 1020.21
1017.13 1017.52 1017.88 1018.22 1018.55 1018.85 1019.13 1019.39 1019.62 1019.81 1019.96 1020.08 1020.15 1020.21 1020.25 1020.28 1020.31 1020.35 1020.37 1020.38 1020.37 1020.34 1020.27 1020.18 1020.08 1019.97 1019.86 1019.76 1019.67 1019.58 1019.50 1019.42 1019.35 1019.30 1019.26 1019.24 1019.26 1019.30 1019.38 1019.48 1019.60 1019.73 1019.87
1017.01 1017.48 1017.94 1018.40 1018.82 1019.22 1019.58 1019.89 1020.15 1020.36 1020.53 1020.65 1020.74 1020.81 1020.86 1020.89 1020.91 1020.92 1020.91 1020.88 1020.84 1020.77 1020.68 1020.57 1020.45 1020.32 1020.18 1020.03 1019.88 1019.72 1019.57 1019.42 1019.28 1019.16 1019.08 1019.03 1019.02 1019.05 1019.11 1019.20 1019.31 1019.43 1019.56
1016.98 1017.52 1018.07 1018.62 1019.14 1019.61 1020.02 1020.37 1020.66 1020.89 1021.06 1021.20 1021.30 1021.38 1021.43 1021.46 1021.47 1021.45 1021.41 1021.35 1021.27 1021.17 1021.06 1020.94 1020.81 1020.67 1020.51 1020.34 1020.15 1019.94 1019.73 1019.52 1019.32 1019.15 1019.02 1018.93 1018.89 1018.89 1018.92 1018.99 1019.07 1019.17 1019.29
1017.07 1017.66 1018.27 1018.88 1019.46 1019.98 1020.42 1020.79 1021.09 1021.32 1021.50 1021.64 1021.76 1021.85 1021.91 1021.94 1021.94 1021.91 1021.84 1021.75 1021.64 1021.52 1021.40 1021.27 1021.14 1021.00 1020.84 1020.66 1020.46 1020.22 1019.97 1019.72 1019.48 1019.26 1019.08 1018.95 1018.86 1018.81 1018.81 1018.83 1018.87 1018.95 1019.04
1017.31 1017.91 1018.55 1019.18 1019.78 1020.30 1020.75 1021.11 1021.40 1021.62 1021.80 1021.94 1022.07 1022.18 1022.25 1022.30 1022.30 1022.26 1022.19 1022.07 1021.94 1021.81 1021.67 1021.54 1021.41 1021.28 1021.13 1020.96 1020.75 1020.51 1020.24 1019.96 1019.69 1019.43 1019.21 1019.02 1018.88 1018.78 1018.71 1018.68 1018.68 1018.70 1018.76
1017.68 1018.27 1018.89 1019.50 1020.08 1020.58 1021.00 1021.33 1021.59 1021.79 1021.96 1022.11 1022.25 1022.37 1022.48 1022.54 1022.56 1022.52 1022.43 1022.31 1022.16 1022.00 1021.86 1021.72 1021.60 1021.47 1021.33 1021.17 1020.97 1020.73 1020.46 1020.17 1019.87 1019.58 1019.32 1019.09 1018.89 1018.72 1018.59 1018.49 1018.43 1018.40 1018.42
1018.13 1018.68 1019.26 1019.83 1020.36 1020.81 1021.18 1021.46 1021.68 1021.86 1022.02 1022.17 1022.32 1022.47 1022.60 1022.69 1022.72 1022.69 1022.59 1022.45 1022.29 1022.11 1021.94 1021.80 1021.66 1021.54 1021.40 1021.25 1021.05 1020.82 1020.55 1020.25 1019.94 1019.63 1019.33 1019.05 1018.80 1018.57 1018.37 1018.21 1018.08 1018.00 1017.98
1018.60 1019.10 1019.63 1020.15 1020.61 1021.01 1021.32 1021.56 1021.74 1021.89 1022.03 1022.19 1022.35 1022.52 1022.66 1022.77 1022.81 1022.78 1022.68 1022.53 1022.33 1022.13 1021.93 1021.75 1021.60 1021.45 1021.31 1021.14 1020.95 1020.72 1020.45 1020.15 1019.83 1019.50 1019.18 1018.86 1018.56 1018.28 1018.03 1017.80 1017.62 1017.50 1017.44
1019.03 1019.49 1019.97 1020.44 1020.85 1021.19 1021.46 1021.65 1021.80 1021.93 1022.06 1022.21 1022.38 1022.55 1022.71 1022.82 1022.87 1022.83 1022.71 1022.53 1022.30 1022.06 1021.82 1021.60 1021.40 1021.22 1021.05 1020.86 1020.66 1020.42 1020.14 1019.84 1019.51 1019.18 1018.84 1018.50 1018.17 1017.86 1017.56 1017.29 1017.07 1016.91 1016.83
1019.37 1019.81 1020.26 1020.69 1021.07 1021.38 1021.61 1021.77 1021.90 1022.01 1022.13 1022.27 1022.44 1022.61 1022.76 1022.87 1022.89 1022.84 1022.69 1022.47 1022.20 1021.91 1021.62 1021.34 1021.10 1020.87 1020.65 1020.43 1020.20 1019.94 1019.65 1019.34 1019.02 1018.68 1018.34 1017.99 1017.65 1017.32 1017.00 1016.72 1016.48 1016.30 1016.20
1019.63 1020.06 1020.50 1020.92 1021.28 1021.57 1021.78 1021.94 1022.05 1022.15 1022.26 1022.39 1022.54 1022.69 1022.82 1022.90 1022.90 1022.81 1022.62 1022.36 1022.04 1021.70 1021.36 1021.03 1020.72 1020.44 1020.18 1019.91 1019.64 1019.36 1019.05 1018.73 1018.41 1018.07 1017.73 1017.39 1017.06 1016.73 1016.41 1016.12 1015.88 1015.69 1015.58
1019.82 1020.27 1020.71 1021.12 1021.48 1021.77 1021.98 1022.13 1022.24 1022.33 1022.42 1022.54 1022.67 1022.79 1022.88 1022.92 1022.88 1022.74 1022.51 1022.21 1021.85 1021.46 1021.07 1020.69 1020.33 1020.00 1019.68 1019.37 1019.06 1018.74 1018.42 1018.09 1017.75 1017.42 1017.09 1016.77 1016.45 1016.13 1015.83 1015.56 1015.31 1015.13 1015.02
1020.01 1020.46 1020.91 1021.33 1021.69 1021.98 1022.19 1022.34 1022.44 1022.53 1022.61 1022.70 1022.80 1022.88 1022.93 1022.92 1022.83 1022.65 1022.38 1022.03 1021.63 1021.20 1020.77 1020.35 1019.95 1019.57 1019.21 1018.86 1018.51 1018.16 1017.81 1017.46 1017.12 1016.78 1016.46 1016.15 1015.85 1015.56 1015.28 1015.02 1014.79 1014.61 1014.49
1020.25 1020.70 1021.15 1021.56 1021.92 1022.20 1022.41 1022.55 1022.65 1022.72 1022.78 1022.85 1022.91 1022.95 1022.95 1022.90 1022.76 1022.53 1022.22 1021.84 1021.41 1020.95 1020.49 1020.04 1019.61 1019.19 1018.80 1018.41 1018.02 1017.64 1017.26 1016.88 1016.52 1016.18 1015.86 1015.55 1015.27 1014.99 1014.73 1014.48 1014.26 1014.08 1013.96
1020.59 1021.03 1021.45 1021.85 1022.18 1022.44 1022.63 1022.76 1022.84 1022.89 1022.93 1022.97 1022.99 1022.99 1022.94 1022.84 1022.65 1022.38 1022.03 1021.62 1021.16 1020.68 1020.20 1019.73 1019.28 1018.84 1018.42 1017.99 1017.57 1017.15 1016.73 1016.33 1015.94 1015.58 1015.24 1014.93 1014.65 1014.38 1014.13 1013.90 1013.69 1013.51 1013.39
1021.05 1021.46 1021.85 1022.20 1022.49 1022.71 1022.87 1022.97 1023.02 1023.04 1023.05 1023.05 1023.04 1022.99 1022.90 1022.75 1022.51 1022.20 1021.82 1021.37 1020.89 1020.39 1019.89 1019.40 1018.93 1018.47 1018.02 1017.56 1017.11 1016.65 1016.19 1015.74 1015.32 1014.93 1014.57 1014.25 1013.96 1013.69 1013.45 1013.22 1013.02 1012.85 1012.73
1021.62 1021.98 1022.31 1022.60 1022.84 1023.01 1023.11 1023.17 1023.18 1023.17 1023.14 1023.11 1023.05 1022.96 1022.82 1022.62 1022.33 1021.98 1021.55 1021.06 1020.55 1020.02 1019.50 1018.99 1018.50 1018.02 1017.54 1017.06 1016.57 1016.07 1015.58 1015.09 1014.62 1014.19 1013.80 1013.46 1013.16 1012.89 1012.66 1012.45 1012.26 1012.10 1011.99
1022.26 1022.56 1022.83 1023.05 1023.21 1023.32 1023.36 1023.37 1023.33 1023.28 1023.21 1023.13 1023.03 1022.89 1022.70 1022.44 1022.10 1021.69 1021.21 1020.68 1020.13 1019.56 1019.01 1018.47 1017.95 1017.45 1016.95 1016.44 1015.92 1015.39 1014.86 1014.33 1013.83 1013.36 1012.95 1012.58 1012.27 1012.01 1011.79 1011.59 1011.43 1011.30 1011.21
1022.90 1023.14 1023.35 1023.50 1023.59 1023.63 1023.61 1023.56 1023.47 1023.37 1023.25 1023.12 1022.97 1022.78 1022.53 1022.21 1021.81 1021.34 1020.80 1020.21 1019.61 1019.00 1018.41 1017.84 1017.29 1016.76 1016.24 1015.71 1015.17 1014.62 1014.06 1013.50 1012.97 1012.48 1012.05 1011.67 1011.36 1011.11 1010.90 1010.74 1010.61 1010.52 1010.46
1023.49 1023.68 1023.83 1023.92 1023.95 1023.93 1023.85 1023.73 1023.59 1023.43 1023.26 1023.08 1022.87 1022.61 1022.30 1021.92 1021.45 1020.91 1020.31 1019.67 1019.01 1018.36 1017.72 1017.12 1016.55 1016.00 1015.47 1014.93 1014.38 1013.82 1013.25 1012.68 1012.14 1011.64 1011.20 1010.82 1010.52 1010.28 1010.11 1009.98 1009.89 1009.84 1009.82
1023.98 1024.14 1024.25 1024.29 1024.27 1024.19 1024.05 1023.88 1023.68 1023.46 1023.24 1022.99 1022.72 1022.40 1022.02 1021.57 1021.05 1020.44 1019.79 1019.09 1018.38 1017.69 1017.02 1016.39 1015.80 1015.25 1014.71 1014.18 1013.63 1013.08 1012.51 1011.96 1011.42 1010.92 1010.49 1010.13 1009.84 1009.63 1009.49 1009.40 1009.35 1009.33 1009.34
1024.38 1024.51 1024.58 1024.59 1024.53 1024.39 1024.21 1023.98 1023.73 1023.45 1023.17 1022.86 1022.52 1022.14 1021.71 1021.20 1020.61 1019.96 1019.26 1018.52 1017.78 1017.06 1016.37 1015.74 1015.15 1014.60 1014.07 1013.55 1013.04 1012.50 1011.97 1011.43 1010.92 1010.44 1010.02 1009.68 1009.41 1009.22 1009.09 1009.02 1009.00 1009.00 1009.03
1024.69 1024.80 1024.85 1024.82 1024.72 1024.55 1024.32 1024.04 1023.73 1023.40 1023.05 1022.69 1022.29 1021.86 1021.37 1020.82 1020.19 1019.51 1018.78 1018.03 1017.27 1016.55 1015.86 1015.23 1014.66 1014.13 1013.63 1013.14 1012.66 1012.16 1011.66 1011.15 1010.66 1010.21 1009.81 1009.48 1009.22 1009.04 1008.92 1008.85 1008.82 1008.81 1008.82
1024.94 1025.03 1025.06 1025.01 1024.87 1024.66 1024.39 1024.06 1023.70 1023.32 1022.92 1022.50 1022.05 1021.57 1021.05 1020.46 1019.82 1019.13 1018.40 1017.65 1016.91 1016.20 1015.53 1014.92 1014.38 1013.87 1013.41 1012.96 1012.51 1012.05 1011.58 1011.11 1010.65 1010.22 1009.83 1009.50 1009.23 1009.03 1008.89 1008.79 1008.73 1008.68 1008.65
Thickness
5717 5714 5711 5708 5705 5703 5701 5699 5696 5693 5691 5690 5688 5686 5685 5684 5683 5682 5681 5679 5678 5677 5675 5674 5673 5671 5669 5668 5666 5664 5662 5661 5660 5660 5660 5660 5660 5660 5659 5659 5659 5658 5658
5716 5713 5709 5705 5702 5699 5697 5694 5690 5687 5684 5682 5680 5678 5677 5676 5675 5674 5673 5671 5669 5668 5667 5666 5664 5663 5661 5660 5658 5657 5656 5654 5653 5653 5652 5653 5653 5653 5652 5652 5652 5652 5651
5713 5710 5705 5701 5696 5693 5690 5686 5683 5680 5677 5674 5671 5669 5668 5668 5666 5665 5663 5661 5659 5657 5656 5655 5654 5652 5651 5650 5648 5647 5647 5646 5645 5645 5644 5643 5643 5643 5643 5643 5643 5643 5643
5708 5704 5699 5693 5689 5685 5681 5677 5673 5669 5666 5663 5661 5659 5658 5657 5655 5652 5650 5648 5646 5643 5641 5640 5639 5639 5638 5637 5636 5635 5635 5634 5634 5633 5633 5633 5632 5632 5632 5632 5633 5633 5633
5700 5695 5688 5682 5679 5674 5669 5666 5661 5659 5655 5653 5651 5647 5645 5643 5641 5639 5636 5633 5631 5629 5626 5624 5623 5623 5622 5621 5621 5620 5620 5620 5621 5620 5620 5620 5620 5620 5620 5620 5620 5621 5621
5690 5684 5677 5671 5667 5662 5657 5654 5651 5648 5645 5643 5641 5635 5631 5628 5626 5624 5622 5619 5617 5614 5612 5610 5608 5607 5605 5605 5604 5604 5604 5604 5604 5605 5605 5606 5606 5606 5606 5606 5606 5607 5608
5680 5674 5667 5662 5658 5652 5647 5645 5642 5638 5634 5632 5630 5625 5619 5616 5613 5610 5608 5605 5602 5600 5597 5595 5593 5591 5589 5588 5587 5587 5587 5587 5587 5588 5589 5589 5590 5591 5591 5591 5591 5592 5593
5670 5665 5660 5655 5649 5643 5638 5635 5633 5628 5622 5620 5619 5615 5609 5605 5601 5597 5594 5591 5588 5585 5583 5580 5577 5575 5573 5572 5571 5570 5570 5569 5570 5571 5572 5573 5574 5575 5576 5576 5577 5578 5579
5662 5657 5652 5646 5639 5634 5628 5625 5623 5619 5613 5608 5605 5602 5598 5595 5587 5584 5581 5577 5573 5570 5567 5565 5563 5560 5558 5556 5554 5553 5553 5553 5553 5554 5555 5556 5557 5559 5560 5561 5562 5564 5565
5652 5647 5642 5635 5629 5624 5620 5616 5612 5608 5604 5599 5593 5587 5583 5578 5574 5571 5568 5563 5559 5556 5553 5551 5548 5545 5542 5540 5539 5538 5538 5538 5538 5538 5539 5540 5541 5543 5545 5546 5549 5551 5553
5641 5637 5633 5627 5621 5616 5611 5606 5601 5597 5593 5587 5581 5575 5568 5561 5557 5555 5554 5551 5546 5542 5539 5536 5533 5530 5528 5526 5524 5523 5523 5523 5523 5523 5523 5524 5525 5527 5529 5531 5534 5536 5539
5632 5628 5623 5618 5612 5606 5601 5596 5590 5585 5580 5574 5568 5562 5556 5551 5546 5540 5538 5539 5539 5536 5528 5522 5518 5515 5513 5511 5509 5507 5506 5506 5505 5505 5505 5506 5508 5509 5512 5514 5517 5520 5524
5622 5617 5613 5607 5601 5596 5590 5584 5579 5573 5567 5561 5555 5549 5542 5537 5531 5526 5523 5523 5524 5524 5519 5512 5504 5499 5495 5493 5491 5488 5487 5485 5485 5486 5486 5487 5489 5490 5492 5495 5498 5502 5506
5614 5608 5602 5596 5590 5584 5578 5572 5567 5561 5555 5549 5543 5536 5530 5523 5517 5511 5507 5505 5507 5509 5504 5499 5490 5482 5477 5474 5471 5468 5467 5466 5465 5465 5466 5467 5469 5470 5472 5474 5478 5482 5486
5604 5597 5591 5584 5578 5572 5566 5560 5554 5547 5541 5535 5529 5522 5516 5510 5504 5497 5491 5485 5481 5487 5492 5483 5473 5466 5458 5455 5452 5450 5448 5447 5446 5446 5447 5448 5449 5450 5452 5454 5457 5461 5466
5592 5585 5579 5572 5566 5560 5553 5546 5539 5532 5526 5520 5514 5507 5501 5494 5488 5481 5474 5466 5459 5457 5464 5463 5454 5447 5441 5437 5434 5432 5431 5430 5429 5428 5429 5429 5430 5431 5433 5435 5438 5442 5448
5578 5572 5565 5559 5552 5545 5538 5531 5524 5518 5512 5505 5498 5492 5485 5478 5472 5465 5458 5451 5444 5438 5442 5449 5438 5431 5424 5420 5418 5416 5415 5415 5415 5414 5414 5415 5415 5416 5418 5420 5423 5427 5432
5563 5557 5550 5544 5537 5529 5522 5516 5510 5503 5496 5489 5483 5476 5470 5464 5458 5451 5445 5438 5432 5425 5422 5427 5427 5418 5412 5407 5406 5405 5405 5405 5405 5405 5404 5405 5406 5407 5409 5411 5414 5418 5422
5547 5541 5534 5528 5521 5513 5507 5500 5494 5487 5480 5473 5467 5461 5456 5451 5446 5440 5433 5427 5421 5415 5409 5408 5411 5408 5404 5401 5400 5400 5399 5399 5398 5399 5399 5400 5401 5402 5403 5404 5407 5411 5415
5531 5524 5518 5511 5504 5497 5491 5485 5478 5471 5465 5459 5454 5449 5444 5439 5435 5429 5424 5418 5412 5407 5403 5400 5401 5400 5398 5398 5396 5397 5398 5396 5396 5396 5397 5398 5398 5399 5400 5401 5403 5405 5408
5514 5507 5501 5494 5488 5482 5476 5470 5464 5458 5452 5447 5442 5437 5432 5429 5425 5419 5414 5409 5404 5401 5399 5396 5396 5396 5396 5397 5396 5396 5397 5397 5397 5397 5398 5399 5399 5399 5400 5401 5401 5403 5405
5496 5490 5484 5479 5473 5468 5462 5457 5451 5445 5440 5436 5432 5428 5423 5420 5415 5410 5405 5402 5400 5398 5397 5395 5396 5396 5398 5398 5399 5398 5397 5398 5399 5401 5399 5401 5400 5400 5401 5402 5403 5403 5404
5480 5474 5469 5464 5459 5454 5449 5443 5438 5434 5430 5426 5422 5418 5415 5412 5408 5404 5402 5400 5399 5398 5398 5397 5399 5400 5401 5401 5401 5401 5400 5400 5401 5402 5401 5404 5405 5405 5406 5406 5406 5406 5406
5464 5459 5454 5449 5445 5441 5436 5431 5427 5423 5419 5416 5413 5410 5407 5405 5403 5401 5400 5401 5402 5402 5402 5402 5401 5402 5402 5402 5402 5401 5402 5402 5404 5405 5404 5407 5410 5410 5411 5410 5409 5409 5409
5450 5445 5439 5435 5431 5427 5423 5419 5416 5412 5409 5407 5406 5404 5403 5402 5400 5399 5400 5402 5404 5405 5405 5404 5403 5403 5403 5402 5401 5401 5402 5402 5404 5406 5406 5407 5409 5410 5410 5410 5410 5410 5410
5435 5430 5425 5420 5417 5413 5410 5407 5404 5402 5401 5400 5400 5400 5399 5399 5399 5399 5401 5403 5405 5406 5405 5406 5405 5404 5403 5402 5400 5399 5398 5398 5399 5402 5403 5403 5406 5407 5409 5409 5409 5409 5409